Change the Weather History Date:

Tuesday, October 23, 2012

  Actual Average Record
Temperature  
Mean Temperature 38 °F 42 °F  
Max Temperature 44 °F 55 °F 67 °F (1999)
Min Temperature 31 °F 30 °F 19 °F (2008)
Degree Days  
Heating Degree Days 27 23  
Month to date heating degree days 426 431  
Since 1 July heating degree days 602 789  
Cooling Degree Days 0 0  
Month to date cooling degree days 0 0  
Year to date cooling degree days 419 208  
Moisture  
Dew Point 30 °F    
Average Humidity 68    
Maximum Humidity 82    
Minimum Humidity 53    
Precipitation  
Precipitation 0.03 in 0.03 in 0.48 in (2004)
Month to date precipitation 0.65 0.83  
Year to date precipitation 7.29 10.71  
Sea Level Pressure  
Sea Level Pressure 29.85 in    
Wind  
Wind Speed 11 mph (SSW)    
Max Wind Speed 26 mph    
Max Gust Speed 33 mph    
Visibility 9 miles    
Events Snow    
T = Trace of Precipitation, MM = Missing Value Source: NWS Daily Summary

Daily Weather History Graph

Daily Weather History Graph

Search for Another Location

Airport or City:

Trip Planner

Search our weather history database for the weather conditions in past years. The results will help you decide how hot, cold, wet, or windy it might be!

Date:

Astronomy

Oct. 23, 2012 Rise Set
Actual Time 7:52 AM MDT 6:29 PM MDT
Civil Twilight 7:22 AM MDT 6:59 PM MDT
Nautical Twilight 6:49 AM MDT 7:32 PM MDT
Astronomical Twilight 6:16 AM MDT 8:06 PM MDT
Moon 3:25 PM MDT (10/23) 1:36 AM MDT (10/23)
Length of Visible Light 11h 36m
Length of Day
10h 37m
Waxing Gibbous, 67% of the Moon is Illuminated
Oct 23
Waxing Gibbous
Oct 29
Full
Nov 6
Last Quarter
Nov 13
New
Nov 20
First Quarter

Hourly Weather History & Observations

Time (MDT) Temp. Windchill Dew Point Humidity Pressure Visibility Wind Dir Wind Speed Gust Speed Precip Events Conditions
12:53 AM 37.9 °F 27.9 °F 32.0 °F 79% 29.72 in 10.0 mi South 19.6 mph 28.8 mph N/A   Overcast
1:53 AM 37.9 °F 28.9 °F 32.0 °F 79% 29.73 in 10.0 mi South 16.1 mph 24.2 mph N/A   Overcast
2:53 AM 37.9 °F 29.6 °F 30.9 °F 76% 29.74 in 10.0 mi SSW 13.8 mph 25.3 mph N/A   Overcast
3:53 AM 37.9 °F 31.5 °F 30.9 °F 76% 29.72 in 10.0 mi SSW 9.2 mph - N/A   Overcast
4:53 AM 37.9 °F 30.5 °F 30.0 °F 73% 29.74 in 10.0 mi SSW 11.5 mph 18.4 mph N/A   Overcast
5:53 AM 36.0 °F 29.0 °F 30.9 °F 82% 29.79 in 10.0 mi SSW 9.2 mph - N/A   Mostly Cloudy
6:53 AM 36.0 °F 32.1 °F 30.9 °F 82% 29.81 in 10.0 mi SSW 4.6 mph - N/A   Mostly Cloudy
7:53 AM 36.0 °F - 28.9 °F 76% 29.81 in 10.0 mi Calm Calm - N/A   Clear
8:53 AM 36.0 °F 28.5 °F 28.9 °F 76% 29.83 in 10.0 mi South 10.4 mph - N/A   Partly Cloudy
9:53 AM 39.0 °F 32.8 °F 30.0 °F 70% 29.83 in 10.0 mi South 9.2 mph - N/A   Partly Cloudy
10:53 AM 42.1 °F 35.2 °F 28.0 °F 58% 29.83 in 10.0 mi South 12.7 mph 19.6 mph N/A   Partly Cloudy
11:53 AM 43.0 °F 36.8 °F 26.1 °F 51% 29.83 in 10.0 mi SSW 11.5 mph - N/A   Clear
12:53 PM 42.1 °F 35.2 °F 26.1 °F 53% 29.83 in 10.0 mi SSW 12.7 mph 24.2 mph N/A   Overcast
1:23 PM 35.6 °F 25.2 °F 32.0 °F 87% 29.86 in 2.0 mi WSW 18.4 mph 29.9 mph 0.01 in Snow Light Snow
1:27 PM 33.8 °F 22.8 °F 30.2 °F 87% 29.86 in 0.8 mi SW 18.4 mph 26.5 mph 0.02 in Snow Light Snow
1:39 PM 33.8 °F 24.8 °F 33.8 °F 100% 29.85 in 1.0 mi SSW 12.7 mph 23.0 mph 0.03 in Snow Light Snow
1:42 PM 33.8 °F 25.3 °F 33.8 °F 100% 29.84 in 3.0 mi SSW 11.5 mph 20.7 mph 0.03 in Snow Light Snow
1:53 PM 36.0 °F 27.5 °F 35.1 °F 97% 29.87 in 9.0 mi SSW 12.7 mph 21.9 mph 0.03 in Snow Light Snow
2:01 PM 39.2 °F 30.5 °F 35.6 °F 87% 29.84 in 10.0 mi SW 16.1 mph 20.7 mph 0.00 in   Scattered Clouds
2:53 PM 39.0 °F 29.6 °F 30.0 °F 70% 29.85 in 10.0 mi SW 18.4 mph 24.2 mph 0.00 in   Overcast
3:53 PM 41.0 °F 30.9 °F 28.9 °F 62% 29.87 in 10.0 mi SW 24.2 mph 31.1 mph N/A   Mostly Cloudy
5:53 PM 39.0 °F 30.6 °F 26.1 °F 60% 29.91 in 10.0 mi SSW 15.0 mph 24.2 mph N/A   Clear
6:53 PM 35.1 °F 27.4 °F 28.0 °F 76% 29.95 in 10.0 mi South 10.4 mph - N/A   Clear
7:53 PM 34.0 °F 25.0 °F 27.0 °F 75% 29.96 in 10.0 mi SSW 12.7 mph 20.7 mph N/A   Clear
8:53 PM 33.1 °F 27.7 °F 26.1 °F 75% 29.98 in 10.0 mi South 5.8 mph - N/A   Clear
9:53 PM 34.0 °F - 25.0 °F 70% 29.96 in 10.0 mi Calm Calm - N/A   Clear
10:53 PM 33.1 °F 25.5 °F 25.0 °F 72% 29.96 in 10.0 mi South 9.2 mph - N/A   Clear
11:53 PM 32.0 °F 24.2 °F 25.0 °F 75% 29.97 in 10.0 mi SSW 9.2 mph - N/A   Clear